Fairbanks, AK

4:16 AM AKDT on May 23, 2017 (GMT -0800)
Fairbanks International

Weather History for PAFA - October, 2012

Change the Weather History Date:

Tuesday, October 16, 2012

  Actual Average Record
Temperature  
Mean Temperature 19 °F 24 °F  
Max Temperature 21 °F 32 °F 56 °F (1925)
Min Temperature 16 °F 17 °F -14 °F (1965)
Degree Days  
Heating Degree Days 46 41  
Month to date heating degree days 516 551  
Since 1 July heating degree days 1490 1545  
Cooling Degree Days 0 0  
Month to date cooling degree days 0 0  
Year to date cooling degree days 34 61  
Moisture  
Dew Point 16 °F    
Average Humidity 88    
Maximum Humidity 93    
Minimum Humidity 82    
Precipitation  
Precipitation 0.14 in 0.03 in 0.44 in (1936)
Month to date precipitation 1.21 0.45  
Year to date precipitation 8.97 9.12  
Snow  
Snow 1.60 in 0.40 in 5.00 in (1921)
Month to date snowfall 3.6 4.6  
Since 1 July snowfall 3.6 6.4  
Since 1 September snowfall 3.6 6.4  
Snow Depth 2.00 in    
Sea Level Pressure  
Sea Level Pressure 29.52 in    
Wind  
Wind Speed 3 mph (SSW)    
Max Wind Speed 6 mph    
Max Gust Speed -    
Visibility 6 miles    
Events Snow    
T = Trace of Precipitation, MM = Missing Value Source: NWS Daily Summary

Daily Weather History Graph

Daily Weather History Graph

Search for Another Location

Airport or City:

Trip Planner

Search our weather history database for the weather conditions in past years. The results will help you decide how hot, cold, wet, or windy it might be!

Date:

Astronomy

Oct. 16, 2012 Rise Set
Actual Time 8:49 AM AKDT 6:23 PM AKDT
Civil Twilight 7:58 AM AKDT 7:13 PM AKDT
Nautical Twilight 7:02 AM AKDT 8:09 PM AKDT
Astronomical Twilight 6:04 AM AKDT 9:07 PM AKDT
Moon 11:23 AM AKDT (10/16) 6:10 PM AKDT (10/16)
Length of Visible Light 11h 14m
Length of Day
9h 34m
Waxing Crescent, 3% of the Moon is Illuminated
Oct 16
Waxing Crescent
Oct 21
First Quarter
Oct 29
Full
Nov 6
Last Quarter
Nov 13
New

Hourly Weather History & Observations

Time (AKDT) Temp. Windchill Dew Point Humidity Pressure Visibility Wind Dir Wind Speed Gust Speed Precip Events Conditions
12:53 AM 21.0 °F 16.2 °F 18.0 °F 88% 29.31 in 6.0 mi SW 3.5 mph - 0.00 in Snow Light Snow
1:53 AM 19.0 °F 11.1 °F 16.0 °F 88% 29.33 in 10.0 mi SSW 5.8 mph - 0.00 in   Mostly Cloudy
2:53 AM 18.0 °F 11.1 °F 16.0 °F 92% 29.35 in 10.0 mi SSW 4.6 mph - N/A   Mostly Cloudy
3:53 AM 18.0 °F 9.8 °F 15.1 °F 88% 29.37 in 10.0 mi SSW 5.8 mph - N/A   Overcast
4:53 AM 18.0 °F - 15.1 °F 88% 29.39 in 10.0 mi Calm Calm - N/A   Overcast
5:53 AM 17.1 °F 10.0 °F 15.1 °F 92% 29.41 in 10.0 mi SSW 4.6 mph - N/A   Overcast
6:53 AM 17.1 °F 11.7 °F 14.0 °F 88% 29.43 in 10.0 mi South 3.5 mph - N/A   Overcast
7:53 AM 16.0 °F 10.4 °F 14.0 °F 92% 29.45 in 10.0 mi South 3.5 mph - N/A   Overcast
8:53 AM 17.1 °F - 12.9 °F 84% 29.46 in 10.0 mi Calm Calm - N/A   Overcast
9:53 AM 17.1 °F - 14.0 °F 88% 29.47 in 10.0 mi Calm Calm - 0.00 in Snow Light Snow
10:29 AM 17.6 °F - 14.0 °F 86% 29.45 in 10.0 mi Calm Calm - 0.00 in Snow Light Snow
10:53 AM 18.0 °F - 15.1 °F 88% 29.49 in 10.0 mi Calm Calm - 0.00 in Snow Light Snow
11:53 AM 19.0 °F - 15.1 °F 85% 29.52 in 10.0 mi Calm Calm - 0.00 in Snow Light Snow
12:53 PM 19.9 °F - 16.0 °F 85% 29.53 in 7.0 mi Calm Calm - 0.00 in Snow Light Snow
1:35 PM 19.4 °F - 15.8 °F 86% 29.52 in 7.0 mi Calm Calm - 0.00 in Snow Light Snow
1:53 PM 19.9 °F - 17.1 °F 89% 29.55 in 7.0 mi Calm Calm - 0.00 in Snow Light Snow
2:53 PM 21.0 °F 16.2 °F 17.1 °F 85% 29.56 in 2.0 mi WSW 3.5 mph - 0.01 in Snow Light Snow
3:51 PM 21.2 °F 16.4 °F 17.6 °F 86% 29.54 in 2.0 mi SSW 3.5 mph - 0.01 in Snow Light Snow
3:53 PM 21.0 °F 16.2 °F 18.0 °F 88% 29.57 in 2.0 mi SSW 3.5 mph - 0.01 in Snow Light Snow
4:50 PM 21.2 °F 14.9 °F 17.6 °F 86% 29.55 in 2.0 mi SSW 4.6 mph - 0.00 in Snow Light Snow
4:53 PM 21.0 °F 14.6 °F 17.1 °F 85% 29.59 in 2.0 mi SSW 4.6 mph - 0.00 in Snow Light Snow
5:34 PM 19.4 °F 11.5 °F 17.6 °F 93% 29.56 in 1.2 mi SSW 5.8 mph - 0.01 in Snow Light Snow
5:53 PM 19.9 °F 13.4 °F 18.0 °F 92% 29.60 in 1.0 mi SSW 4.6 mph - 0.01 in Snow Light Snow
6:23 PM 19.4 °F 14.3 °F 17.6 °F 93% 29.58 in 1.0 mi SSW 3.5 mph - 0.01 in Snow Light Snow
6:53 PM 19.9 °F 14.9 °F 18.0 °F 92% 29.62 in 1.0 mi SSW 3.5 mph - 0.02 in Snow Light Snow
7:53 PM 19.9 °F 13.4 °F 18.0 °F 92% 29.64 in 1.0 mi SW 4.6 mph - 0.02 in Snow Light Snow
8:53 PM 19.9 °F - 18.0 °F 92% 29.66 in 1.0 mi Calm Calm - 0.02 in Snow Light Snow
9:02 PM 19.4 °F - 17.6 °F 93% 29.63 in 2.0 mi Calm Calm - 0.00 in Snow Light Snow
9:53 PM 19.9 °F - 17.1 °F 89% 29.68 in 2.0 mi Calm Calm - 0.01 in Snow Light Snow
10:53 PM 19.9 °F - 17.1 °F 89% 29.70 in 2.5 mi Calm Calm - 0.01 in Snow Light Snow
11:53 PM 19.9 °F - 17.1 °F 89% 29.72 in 2.0 mi Calm Calm - 0.01 in Snow Light Snow